Regional Weather Roundup
Issued by NWS

Home | Current Version | Previous Version | Text Only | Print | Product List | Glossary On
Versions: 1 2 3 4 5 6 7 8 9 10 11 12 13 14 15 16 17 18 19 20 21 22 23 24 25 26 27 28 29 30 31 32 33 34 35 36 37 38 39 40 41 42 43 44 45 46 47 48 49 50
000
ASUS43 KMKX 271000
RWRWI

WISCONSIN REGIONAL WEATHER ROUNDUP
NATIONAL WEATHER SERVICE MILWAUKEE/SULLIVAN WI
500 AM CDT SAT MAY 27 2017

NOTE: "FAIR" INDICATES FEW OR NO CLOUDS BELOW 12,000 FEET WITH NO
SIGNIFICANT WEATHER AND/OR OBSTRUCTIONS TO VISIBILITY.

WIZ001-002-006>008-014>016-023>028-271100-
NORTHWEST WISCONSIN

CITY           SKY/WX    TMP DP  RH WIND       PRES   REMARKS
SUPERIOR ARPT  NOT AVBL
ASHLAND        CLEAR     53  52  96 SW7       29.81R
HAYWARD        FOG       47  45  93 CALM      29.84R VSB 1/4
SIREN          CLEAR     49  48  95 CALM      29.85S
CUMBERLAND     CLEAR     50  46  87 W5        29.86R
RICE LAKE      CLEAR     52  51  97 CALM      29.87R
CHETEK         FOG       50  50 100 CALM      29.86R VSB 1/2
LADYSMITH      FOG       53  53  97 CALM      29.85S VSB 1/2
EAU CLAIRE     CLEAR     55  55 100 SW5       29.84R FOG
MENOMONIE      CLEAR     54  50  86 W5        29.86R
NEW RICHMOND   CLEAR     50  49  97 CALM      29.87R
OSCEOLA        CLEAR     47  47 100 CALM      29.89R
$$

WIZ003>005-009-010-017-018-271100-
NORTH CENTRAL WISCONSIN

CITY           SKY/WX    TMP DP  RH WIND       PRES   REMARKS
MANITOWISH WTR PTCLDY    55  55 100 SW3       29.84R
ARBOR VITAE    CLEAR     57  55  95 SW3       29.84S
WOODRUFF       CLEAR     57  55  95 SW3       29.84S
RHINELANDER    CLOUDY    57  55  93 SW7       29.86R
EAGLE RIVER    CLOUDY    54  54  99 CALM      29.84S
LAND O LAKES   CLOUDY    55  54  94 CALM      29.86S
PHILLIPS       CLEAR     54  54 100 CALM      29.83S
TOMAHAWK       CLEAR     53  52  96 CALM      29.85S FOG
MEDFORD        PTCLDY    53  52  96 S6        29.85S
MERRILL        FOG       53  53 100 CALM      29.86S VSB 1/2
$$

WIZ029-030-035-036-043>047-271100-
CENTRAL WISCONSIN

CITY           SKY/WX    TMP DP  RH WIND       PRES   REMARKS
WAUSAU         CLOUDY    52  52 100 SE3       29.85S
MOSINEE        CLOUDY    52  52 100 CALM      29.88R FOG
MARSHFIELD     CLEAR     53  51  93 CALM      29.85S
STEVENS POINT  PTCLDY    51  51 100 CALM      29.88R FOG
WAUPACA        FOG       52  51  97 CALM      29.88S VSB 3/4
WAUTOMA        CLEAR     47  46  97 CALM      29.89S
WISC RAPIDS    CLEAR     53  52  96 S3        29.88R FOG
CAMP DOUGLAS   CLEAR     52  52 100 SE3       29.88R FOG
$$

WIZ011>013-019>022-031-037>040-048>050-271100-
NORTHEAST WISCONSIN

CITY           SKY/WX    TMP DP  RH WIND       PRES   REMARKS
ANTIGO         CLOUDY    53  53  99 S5        29.86F
SHAWANO        CLEAR     53  51  94 CALM      29.88S FOG
OCONTO         CLEAR     47  47  97 CALM      29.86S
STURGEON BAY   CLEAR     48  47  96 CALM      29.88S
GREEN BAY      CLEAR     51  51 100 CALM      29.88R FOG
MANITOWOC      NOT AVBL
APPLETON       CLOUDY    52  50  93 CALM      29.87S
CLINTONVILLE   FOG       50  48  93 CALM      29.88S VSB 3/4
OSHKOSH        CLEAR     50  48  93 CALM      29.88R
$$

WIZ032>034-041-042-053>061-271100-
SOUTHWEST WISCONSIN

CITY           SKY/WX    TMP DP  RH WIND       PRES   REMARKS
LA CROSSE      CLEAR     59  57  93 S7        29.87R
SPARTA         CLEAR     48  48 100 CALM      29.88R
VIROQUA        CLOUDY    56  56 100 N5        29.89R
BOSCOBEL       FOG       52  52 100 SW3       29.90R VSB 1/2
PRAIRIE DU CHI FOG       55  53  95 CALM      29.89R VSB<1/4
PLATTEVILLE    CLEAR     52  52 100 CALM      29.90R
$$

WIZ056-057-062-063-064-067-068-271100-
SOUTH CENTRAL WISCONSIN

CITY           SKY/WX    TMP DP  RH WIND       PRES   REMARKS
REEDSBURG      CLEAR     49  49 100 CALM      29.88S FOG
BARABOO/DELLS    N/A     48  47  95 CALM      29.89R FOG
LONE ROCK      FOG       52  51  97 CALM      29.90R VSB<1/4
MINERAL POINT  FOG       52  52 100 CALM      29.89R VSB 3/4
MADISON        PTCLDY    46  46 100 CALM      29.88S FOG
MIDDLETON      CLOUDY    47  47 100 CALM      29.89S VSB 3/4
WATERTOWN      CLEAR     47  47 100 CALM      29.88S
MONROE         CLEAR     52  52 100 E5        29.88S FOG
JANESVILLE       N/A     50  50 100 CALM      29.88S FOG
$$

WIZ051-052-058>065-066-070>072-271100-
SOUTHEAST WISCONSIN

CITY           SKY/WX    TMP DP  RH WIND       PRES   REMARKS
MILWAUKEE      MOCLDY    54  53  97 CALM      29.89R
WAUKESHA       FOG       45  45 100 CALM      29.90S VSB 1/4
MILWAUKEE/TIMM FOG       52  50  93 CALM      29.89S VSB 1/2
RACINE         MOCLDY    51  49  92 CALM      29.90S
KENOSHA        MOCLDY    52  50  93 CALM      29.89R FOG
FOND DU LAC    CLEAR     49  46  90 CALM      29.89R FOG
SHEBOYGAN      CLEAR     49  49 100 SW3       29.88R FOG
WEST BEND      FOG       46  46 100 CALM      29.88F VSB 1
JUNEAU         FOG       49  48  99 CALM      29.90S VSB 3/4
$$

LSZ147-162-271100-
LAKE SUPERIOR

STATION/POSITION TIME  TEMP    WIND        PRES    WAVE
                       AIR SEA DIR/SP/G            HT/PER
                 (UTC) (F)     (DEG/KT/KT) (MB)    (FT/S)
W MID LAKE BUOY  0850   46 37  220/  8/  8 1008.8S   0
DEVILS ISLAND    0900   44     230/ 11/ 12 1009.2R
PORT WING        0930   43     140/  3/  4 1009.5S
SAXON HARBOR     0940   56     200/  3/  6 1009.1R
$$

LMZ867-665-643>646-271100-
LAKE MICHIGAN

STATION/POSITION TIME  TEMP    WIND        PRES    WAVE
                       AIR SEA DIR/SP/G            HT/PER
                 (UTC) (F)     (DEG/KT/KT) (MB)    (FT/S)
CHAMBERS ISLAND  0940   53     180/  3/  5 1011.2S
N MID LAKE BUOY  0850   44 42  170/  4/  6 1012.7F   0
NORTHPORT PIER   0940   49     160/  4/  5 1011.5S
SISTER BAY       0936   52     160/ 11/ 13   N/A
ALGOMA LAKESHORE 0916             CALM       N/A
KEWAUNEE LAKESHO 0930   48      CALM  /  1 1011.4S
SHEBOYGAN LAKESH 0900   53     220/  2/  2 1011.6F
PORT WASHINGTON  0940   49      CALM  /  2 1012.9S
ATWATER BUOY     0809   48     140/  2/  4 1011.9F
MILWAUKEE LAKESH 0930   50      50/  1/  1   N/A
S MID LAKE BUOY  0850   48 46   10/  6/  6 1012.0R   0
KENOSHA   LAKESH 0900   51        CALM     1011.9
$$

TC  - TEMPERATURE IN CELSIUS
VSB - VISIBILITY IN STATUTE MILES
WCI - WIND CHILL INDEX
HX  - HEAT INDEX




USA.gov is the U.S. government's official web portal to all federal, state and local government web resources and services.